User: anonymous   Login
Location: Unspecified
(0.0000°N, 0.0000°E)
Time: 18:53:31
(UTC+00:00)
Language:

AAUSAT3 - Orbit

View from above orbital plane
View from above orbital plane
View from above satellite
View from above satellite

Ground track
Ground track

The orbit data is extracted from the following two-line orbital elements,

1 39087U 13009B   19341.40785431  .00000076  00000-0  41107-4 0  9990
2 39087  98.4680 184.9154 0012815 133.8698 226.3550 14.35772230355113
Epoch (UTC): 07 December 2019 09:47:18
Eccentricity: 0.0012815
inclination: 98.4680°
perigee height: 763 km
apogee height: 781 km
right ascension of ascending node: 184.9154°
argument of perigee: 133.8698°
revolutions per day: 14.35772230
mean anomaly at epoch: 226.3550°
orbit number at epoch: 35511

The dashed part of the orbit path shows where the satellite is in the earth's shadow,  

DLR